Theta_e
339 340 341 342 344 343 346 349 350 350 350 352 353 351 351 352 355 356 355 356 360 361 366 370 367 366 365 363 365 366 365 364 363 361 362 362 364 364 364 358 354 354 352 350 348 347 349 353 354 355 357 356 357 357 357 358 358 353 355 355 358 358 358
337 338 340 341 343 343 347 349 350 349 349 350 350 351 350 350 353 352 355 359 360 362 365 364 366 365 364 364 360 365 366 363 362 363 361 363 365 364 357 347 344 345 347 347 345 348 350 352 353 351 351 353 350 353 352 353 354 354 352 352 352 356 360
338 338 340 340 342 342 347 347 348 347 349 348 348 349 350 351 352 355 357 359 360 363 366 364 367 363 363 363 361 363 362 361 363 360 353 345 348 352 344 345 345 342 345 344 346 344 348 348 351 352 353 352 347 346 350 351 352 351 353 357 358 357 359
340 339 339 341 342 344 348 348 347 346 347 347 348 349 350 353 353 356 360 361 361 364 365 366 366 362 359 360 359 361 359 358 354 347 344 345 345 344 344 345 346 345 343 341 341 343 344 347 348 349 350 349 349 347 349 349 349 349 351 357 357 359 360
339 340 340 341 340 343 346 346 346 347 346 346 348 349 349 352 354 359 361 362 364 364 366 366 366 364 361 359 355 353 351 348 346 342 346 349 350 350 347 344 341 340 341 340 343 344 347 348 347 347 346 348 347 347 348 350 350 351 351 352 352 355 355
338 340 341 341 340 342 344 345 346 346 348 346 348 348 348 350 354 355 360 365 366 366 367 367 365 362 360 360 355 347 346 343 346 349 351 352 352 350 342 340 340 340 339 340 341 342 342 342 343 344 344 343 342 342 343 346 347 349 350 351 353 353 352
343 343 344 344 340 342 343 345 344 346 348 349 350 350 351 351 354 350 362 365 365 362 363 363 363 362 362 361 357 350 341 341 345 349 352 352 353 351 345 343 342 341 341 342 341 343 343 343 345 345 345 345 346 344 346 347 348 348 349 351 351 353 355
347 349 348 343 341 341 342 345 344 346 349 351 350 352 353 353 354 352 362 362 362 362 363 361 359 361 361 360 353 346 345 345 347 352 354 353 351 349 344 342 342 341 344 341 343 343 344 346 345 346 346 345 346 347 346 349 351 349 350 350 350 350 350
351 352 347 344 343 343 344 345 346 348 352 352 349 352 353 353 355 356 360 359 360 360 360 359 361 363 360 354 352 349 348 350 351 353 355 355 354 351 346 343 344 343 343 344 345 346 344 343 343 344 346 346 346 347 347 349 349 349 350 351 352 351 350
353 354 353 350 348 345 348 351 350 355 354 353 352 355 356 358 360 356 357 357 359 359 360 360 360 358 356 353 348 349 351 353 355 356 356 355 353 352 348 345 344 344 345 348 347 344 345 345 344 347 349 348 348 349 351 351 352 351 351 353 354 353 351
354 354 354 351 352 354 356 353 351 356 356 356 358 359 360 362 361 358 357 357 358 360 359 359 359 357 357 353 351 351 352 354 356 356 355 351 350 348 349 349 347 346 348 349 348 347 347 346 347 347 348 346 347 349 351 351 353 353 354 354 355 353 352
352 351 353 352 352 354 354 355 356 358 358 359 360 359 361 363 361 359 358 359 361 361 360 359 361 360 357 355 353 353 353 354 357 356 356 356 355 352 349 350 350 351 350 351 352 353 351 350 349 345 344 345 345 347 350 352 353 353 353 353 353 351 351
350 351 352 352 353 354 356 356 356 358 360 359 358 359 359 359 358 358 359 361 362 363 363 363 363 361 360 358 356 356 355 354 355 356 358 357 356 354 353 354 354 354 352 353 353 353 352 351 350 348 347 349 350 348 349 350 351 351 352 353 353 353 352
346 350 351 352 352 353 353 354 356 357 358 358 357 359 358 355 357 360 361 360 361 364 363 360 359 360 359 359 357 356 354 354 354 356 357 358 359 358 357 357 356 355 355 354 354 353 352 351 350 350 350 350 351 351 351 352 351 351 351 352 351 351 351
345 346 348 347 349 351 351 352 355 355 355 357 357 357 358 359 360 360 359 359 360 361 361 361 359 358 358 358 358 357 358 357 358 358 360 360 360 358 357 356 355 355 354 355 353 350 350 350 350 349 349 350 350 351 350 349 348 349 349 350 350 350 350
344 346 346 346 348 349 351 353 355 355 355 356 355 356 356 357 358 357 355 354 356 358 360 361 361 359 358 357 357 358 359 359 360 360 358 357 356 355 355 354 353 353 353 352 352 352 352 352 351 350 349 348 349 350 349 348 349 348 348 348 350 350 349
345 347 346 346 349 350 352 353 353 354 354 353 354 354 355 354 353 353 355 356 359 360 360 360 357 357 357 357 358 358 359 357 355 355 354 354 353 353 353 353 353 352 351 350 351 351 351 350 350 349 349 348 348 348 347 347 347 346 340 340 341 349 349
345 344 345 347 350 351 350 350 350 350 350 352 351 350 351 355 358 356 354 356 355 355 355 353 353 352 353 353 353 352 352 351 351 352 352 353 353 353 353 352 352 350 350 348 348 348 348 347 347 348 348 347 347 346 346 346 344 336 336 338 337 342 347
341 341 345 348 348 348 348 349 350 349 348 348 354 357 352 351 350 349 351 350 351 352 350 351 350 350 349 350 351 351 352 352 352 351 351 351 352 352 351 350 348 348 347 346 346 347 346 347 346 346 346 346 345 345 345 345 340 334 334 334 334 335 343
342 342 343 345 346 347 347 346 346 349 352 350 347 347 347 349 348 349 349 350 350 350 349 348 349 350 350 350 351 351 351 350 351 351 351 351 350 349 348 347 346 346 346 345 346 345 345 345 344 345 346 346 345 345 345 345 341 333 332 331 331 332 336
341 340 341 342 342 344 346 349 350 347 347 346 345 348 350 350 349 348 350 350 348 350 349 349 349 348 349 349 350 351 351 351 349 348 348 348 347 346 346 345 345 344 345 344 344 343 343 343 344 344 344 345 345 344 343 343 335 331 330 329 328 329 334
340 342 342 343 344 346 345 344 344 345 346 346 346 347 346 346 346 347 347 349 350 350 351 350 349 349 349 349 349 349 349 348 348 347 346 345 345 344 343 343 343 343 343 344 343 344 344 344 344 344 344 344 345 343 342 343 333 329 328 326 326 329 343
340 341 340 341 341 340 343 344 345 344 347 345 346 345 345 347 347 347 346 346 347 347 347 346 346 346 346 346 346 346 346 346 345 344 344 343 343 342 341 341 342 342 343 342 342 341 342 343 342 343 343 343 343 343 342 343 336 328 325 324 324 329 343
337 337 337 337 341 342 344 344 345 342 340 340 346 346 348 348 348 347 345 344 345 346 345 345 344 345 344 343 344 344 345 345 344 343 343 342 341 341 341 341 342 342 343 341 340 340 341 342 341 342 342 343 342 342 342 343 339 329 325 323 323 333 344
332 335 337 340 340 342 343 344 342 339 343 344 343 344 346 346 344 343 343 344 345 344 343 342 342 342 341 341 342 342 343 344 343 342 341 340 340 340 340 340 340 341 342 340 340 340 340 340 339 339 340 341 342 339 340 342 338 328 324 323 322 332 344
333 336 338 338 340 343 343 343 342 340 341 343 345 345 344 344 341 343 342 342 343 341 340 340 340 341 342 342 342 342 342 342 342 341 340 340 340 341 340 341 341 341 341 339 339 338 338 338 338 338 338 341 341 340 341 341 343 341 326 322 321 322 342
336 338 339 341 339 342 341 340 338 335 336 342 344 344 344 343 343 341 341 340 339 338 338 340 340 340 340 340 340 340 340 341 340 340 340 340 339 340 340 340 339 340 339 337 337 337 337 337 338 337 337 339 339 340 341 341 341 341 326 321 320 320 325
337 339 341 341 341 340 339 337 338 339 338 341 342 343 342 341 340 339 338 337 336 337 338 339 340 340 339 339 339 338 338 338 339 339 338 338 339 338 337 338 338 337 337 336 336 335 335 336 336 336 336 338 339 339 340 340 338 342 331 324 320 319 319
339 340 340 340 339 340 337 338 338 339 342 341 341 342 340 339 337 336 335 333 335 336 337 337 337 338 337 337 336 337 337 337 338 337 337 336 337 336 335 337 336 337 336 334 334 334 334 334 335 334 334 335 336 337 338 340 341 334 340 329 321 319 319
339 339 338 337 336 338 339 339 340 341 341 341 342 340 339 337 334 333 332 333 335 336 336 336 336 335 335 334 333 334 335 335 336 336 336 335 335 335 333 333 333 333 333 333 333 332 332 332 333 333 333 332 333 335 337 339 343 339 334 339 327 320 317
337 338 338 338 340 341 341 339 339 339 339 339 338 338 338 337 333 332 331 332 334 334 334 333 333 332 332 331 332 333 334 334 334 334 334 334 333 332 331 332 332 331 332 332 332 331 331 331 331 330 331 331 333 335 338 341 342 344 341 333 330 322 318
336 339 339 340 342 340 340 340 338 337 336 336 336 335 336 335 333 330 331 333 333 333 332 331 330 330 330 330 331 331 332 330 331 331 331 331 331 331 331 330 331 330 331 331 330 331 330 330 330 330 330 330 333 334 335 337 339 338 338 337 335 332 324
337 337 338 338 339 339 338 337 335 334 334 333 334 333 333 332 331 332 333 332 331 329 330 330 329 328 328 328 329 329 329 328 327 327 329 331 331 331 331 331 331 330 330 330 330 330 329 330 330 330 330 331 332 333 332 333 333 333 332 333 332 330 329
338 339 340 339 338 336 335 334 332 332 331 330 331 331 331 330 331 331 330 329 329 328 327 327 327 326 326 326 327 327 327 327 328 328 328 329 330 330 330 331 331 330 329 330 330 328 329 329 330 329 330 330 329 327 326 326 328 329 328 327 324 321 319
338 339 338 337 336 334 333 331 330 330 329 329 330 330 330 330 329 329 328 327 327 328 326 325 325 326 326 326 326 326 327 328 329 329 328 329 329 331 331 331 330 331 332 335 334 333 331 332 331 330 329 326 323 321 320 321 322 324 319 319 311 311 310
338 337 336 335 335 334 332 331 330 329 328 328 329 329 329 328 328 328 327 327 327 326 325 325 325 325 325 325 326 326 326 327 327 328 328 328 329 330 331 330 321 326 332 331 330 325 317 315 324 325 322 320 321 322 318 317 319 314 306 303 302 301 301
336 335 334 333 331 331 330 329 329 329 328 328 328 328 328 327 327 327 327 327 327 326 325 325 324 324 324 325 325 325 325 326 326 327 328 329 330 331 330 330 334 313 309 315 322 317 306 304 304 306 311 317 318 319 315 313 308 304 302 301 300 298 298
334 333 332 332 330 329 328 327 327 327 327 327 327 327 327 325 325 325 326 327 327 327 325 324 323 322 324 325 325 325 326 326 327 328 330 332 332 332 331 329 329 332 317 305 313 310 305 305 303 301 301 304 307 311 316 312 306 302 299 299 298 298 297
Wind_Speed
15 14 13 12 12 12 12 12 12 11 11 11 10 11 10 9 9 8 7 8 8 8 7 7 7 7 7 7 7 6 6 6 6 5 5 5 4 4 5 6 7 6 7 8 9 9 9 10 11 12 11 11 11 11 12 11 11 12 12 12 12 12 12
15 14 13 13 13 13 13 12 12 11 11 10 10 10 9 10 10 9 8 9 9 9 8 8 8 7 7 7 6 7 6 6 5 4 4 3 3 4 4 6 6 6 7 8 9 9 10 10 11 12 13 13 13 13 12 12 12 12 12 12 12 11 11
15 14 14 13 13 13 13 13 13 11 12 11 11 10 10 10 10 10 9 9 9 8 8 8 8 8 7 7 7 7 8 7 6 6 7 7 4 3 4 5 5 6 6 7 8 9 9 10 9 10 10 11 12 12 11 12 11 12 12 12 12 11 12
15 15 14 14 14 13 13 13 14 13 12 12 11 11 11 10 9 9 8 9 9 9 9 8 8 8 8 8 8 7 7 7 7 6 5 3 2 4 5 5 5 6 6 6 7 7 8 9 10 10 11 11 12 12 12 12 12 12 12 12 11 12 12
16 15 14 13 14 13 13 13 13 13 13 12 11 10 10 10 9 7 8 8 8 8 8 8 7 7 6 7 6 6 7 7 6 4 3 3 5 5 6 6 6 7 7 8 8 7 7 8 9 10 10 10 11 11 12 13 13 12 12 12 11 12 12
16 15 14 14 14 14 14 14 14 14 12 12 11 11 9 10 10 11 8 8 7 7 7 8 8 7 7 7 6 5 5 5 4 4 5 5 6 6 7 8 8 8 8 8 7 8 9 9 10 10 11 11 12 12 12 13 13 12 12 11 11 11 12
13 14 14 14 14 13 14 14 14 14 13 10 10 9 8 8 9 9 8 8 8 9 9 9 8 8 7 6 6 6 6 7 7 7 6 7 7 7 8 8 8 7 7 7 8 9 10 10 11 11 11 12 12 12 12 12 13 12 12 11 11 11 13
13 12 14 15 14 13 13 13 13 12 11 10 10 9 9 8 7 8 7 7 7 8 8 9 8 7 7 6 6 8 8 7 5 7 7 8 8 9 9 9 8 8 8 9 8 9 11 11 11 11 12 12 13 13 13 12 12 13 12 12 13 13 11
11 12 14 14 14 12 12 12 12 11 11 11 11 9 9 8 8 8 8 8 8 8 9 8 7 7 6 7 7 8 8 7 7 7 9 9 9 9 10 10 9 8 8 9 9 9 10 11 12 12 12 12 13 13 13 13 13 12 13 13 13 14 14
9 8 9 9 10 8 9 10 10 10 10 10 9 9 9 8 8 8 8 8 8 9 9 8 6 6 7 7 8 9 9 9 9 10 10 10 9 10 11 11 9 8 8 9 9 11 10 11 12 12 12 13 13 13 13 13 13 13 13 14 14 15 15
4 5 5 7 8 7 8 9 10 9 9 9 9 9 9 8 8 7 8 8 8 8 8 7 6 7 7 8 9 9 10 11 10 10 11 12 11 12 11 11 10 9 9 9 10 11 11 11 12 12 12 13 14 14 13 13 13 13 14 14 13 14 15
5 4 5 6 6 7 8 7 7 7 8 8 8 8 8 8 8 8 8 8 7 7 7 7 6 7 8 8 9 10 11 11 10 11 12 12 11 12 11 10 10 10 9 10 11 11 11 11 11 12 14 13 14 14 14 13 13 14 14 15 15 14 14
5 5 5 6 6 5 6 6 6 7 7 7 8 8 7 8 8 7 7 7 7 5 5 5 6 6 7 8 9 9 10 11 11 10 10 10 11 10 9 10 10 10 10 10 10 11 11 12 13 12 13 13 13 14 14 14 14 14 14 14 15 15 15
5 5 5 4 5 5 6 5 6 7 7 7 7 6 6 6 6 6 6 6 5 5 5 4 6 7 8 8 9 9 11 10 10 10 10 10 9 9 9 9 9 9 9 10 11 12 13 13 13 12 12 12 13 13 13 14 14 14 14 14 14 14 15
5 6 6 5 4 4 5 6 6 6 7 7 6 6 6 5 4 3 3 3 4 4 6 6 7 7 8 8 8 8 8 8 8 8 8 8 8 8 8 9 9 9 10 10 12 12 13 13 13 13 13 13 13 14 13 13 13 12 12 13 14 14 15
5 5 6 5 5 5 5 5 6 6 7 6 6 6 5 4 3 3 4 5 6 7 6 6 6 7 7 7 7 7 7 7 7 7 7 8 8 8 9 9 9 10 11 12 12 12 12 12 13 13 13 13 13 13 13 13 11 13 15 14 13 14 13
5 5 5 5 5 5 5 5 5 5 5 5 5 4 2 3 4 5 5 4 4 4 3 3 4 5 5 6 6 6 6 6 7 7 8 8 8 9 9 10 10 10 11 12 12 13 12 12 13 12 12 13 13 14 13 12 12 14 13 13 14 13 15
5 5 5 6 6 5 5 5 5 4 4 3 3 3 3 2 1 1 2 2 1 1 1 2 3 4 5 5 6 6 7 7 8 8 8 9 9 10 10 10 10 11 12 12 13 12 12 13 13 13 13 12 13 14 14 14 14 14 12 11 11 11 14
5 5 7 6 6 5 4 4 4 4 3 2 2 2 2 1 0 0 2 2 2 1 2 2 3 4 5 6 6 7 7 7 8 9 9 9 10 9 9 11 12 12 12 13 13 12 12 13 13 13 13 13 15 15 15 15 14 13 13 14 14 14 13
5 7 7 5 5 5 5 3 3 3 4 4 4 3 3 3 3 3 2 1 1 1 2 3 4 5 6 7 7 7 8 8 9 9 9 10 10 10 12 12 13 13 12 12 12 13 13 14 15 14 14 14 14 14 14 15 15 14 12 13 14 14 13
5 5 6 6 5 5 4 3 4 4 5 5 4 4 3 4 2 1 1 1 2 2 3 4 6 7 7 8 8 8 8 9 10 11 11 11 12 12 12 13 13 13 12 12 12 13 13 13 14 13 14 14 14 14 14 13 15 13 13 13 14 14 13
7 6 5 4 5 5 5 5 5 5 5 4 4 4 3 2 1 2 3 3 4 4 4 5 6 7 7 8 8 9 9 10 11 11 11 12 12 13 13 13 13 13 13 12 12 12 12 13 13 14 14 14 15 15 16 15 15 14 13 14 14 15 11
7 6 7 7 8 8 7 6 6 5 5 4 3 3 2 2 2 3 4 5 5 5 6 7 8 8 9 9 9 10 11 11 12 12 13 13 13 13 14 14 14 14 12 13 13 13 13 13 14 13 14 15 15 16 15 15 15 14 14 15 15 12 12
9 8 8 9 8 8 7 6 5 5 3 3 4 4 2 2 3 4 5 6 7 7 7 8 8 8 9 10 11 12 12 12 13 13 13 13 14 14 14 13 13 13 12 13 14 14 14 13 13 14 14 15 15 15 16 15 16 16 15 15 15 13 13
8 8 8 7 7 7 7 5 4 2 4 3 4 4 4 4 5 6 7 7 7 8 8 9 9 10 11 12 12 13 13 12 13 13 14 14 14 14 14 14 14 13 13 13 13 14 14 14 14 14 14 14 15 17 17 16 17 17 16 16 16 13 12
7 8 8 7 8 7 5 4 2 2 4 4 5 5 6 6 6 7 7 8 8 9 10 10 11 12 12 12 12 12 13 12 13 14 14 14 14 14 14 13 13 13 13 13 13 14 14 14 14 15 14 14 15 14 15 16 16 16 16 13 14 15 11
7 7 7 6 6 4 3 3 4 5 5 4 5 6 6 6 6 7 8 9 9 10 10 11 12 12 12 12 13 14 14 13 13 14 15 14 14 13 13 12 13 13 13 14 13 13 14 15 15 15 16 15 15 15 15 15 16 16 15 14 13 13 11
7 8 7 7 6 4 4 4 4 4 5 5 6 6 6 7 7 8 9 9 11 12 12 12 12 12 13 13 14 14 14 14 14 14 13 13 13 14 13 13 13 13 13 12 13 15 16 16 15 15 15 15 14 15 15 15 16 16 17 16 15 15 16
6 6 6 4 4 6 5 4 4 5 6 6 7 6 7 8 9 10 10 11 13 12 13 12 12 13 14 14 14 14 15 15 15 14 12 13 13 14 14 13 13 13 13 14 14 15 16 16 15 15 15 15 14 14 14 14 14 15 15 15 15 16 16
6 6 5 3 4 5 4 3 4 5 6 6 6 6 7 8 10 11 12 13 12 11 12 12 13 13 14 14 14 15 13 14 14 14 14 14 14 14 14 14 14 13 13 13 14 14 14 14 14 14 14 14 14 13 13 13 12 12 13 14 16 16 17
5 5 4 3 4 5 4 4 5 6 6 6 7 7 8 9 10 12 13 12 11 12 12 13 13 14 14 14 14 14 14 14 14 14 14 13 13 14 13 14 13 13 12 12 12 13 13 13 13 12 13 13 13 13 13 11 11 11 11 11 10 13 14
5 4 3 3 3 4 4 4 5 6 7 7 8 8 8 9 10 12 12 12 11 12 12 13 13 14 15 14 14 14 14 15 15 14 14 13 12 12 12 12 12 12 12 11 11 11 11 12 13 13 13 11 11 12 12 13 13 13 12 11 11 11 11
4 3 3 3 4 4 4 5 5 6 8 9 8 8 9 11 11 11 11 11 12 13 13 13 13 14 14 14 14 15 14 14 13 12 13 13 11 10 10 9 10 11 12 11 11 11 11 12 12 12 11 10 10 11 13 13 13 13 13 11 10 10 9
3 3 4 3 3 4 4 5 6 8 9 9 9 10 10 11 11 12 12 13 14 13 13 13 13 14 14 15 14 13 13 13 15 15 12 11 11 11 10 11 12 12 12 13 12 12 12 12 11 11 10 11 12 12 12 13 13 13 12 11 9 11 12
3 3 2 2 3 3 4 6 7 9 10 11 10 10 11 12 12 12 13 13 13 12 12 13 14 14 15 14 12 12 12 12 12 11 11 11 12 11 10 11 12 13 13 13 12 9 10 9 11 11 8 8 8 10 11 12 13 11 10 13 16 15 13
3 2 2 3 3 4 5 6 8 9 10 10 10 11 11 12 12 12 12 12 12 12 12 14 14 14 13 12 12 12 12 11 12 12 12 12 13 13 12 13 13 13 12 12 12 13 5 1 5 4 5 7 8 7 9 12 14 18 20 21 20 20 20
2 1 2 3 4 5 7 8 9 9 10 10 10 9 10 11 12 12 12 12 12 12 13 13 13 13 12 12 12 12 11 11 11 11 12 13 13 11 10 11 10 10 15 16 16 9 5 3 4 5 5 6 9 9 11 15 18 19 20 20 20 19 20
2 2 2 3 4 6 8 9 9 9 9 9 9 10 11 13 13 12 12 11 11 11 12 13 12 12 11 12 12 12 11 10 11 12 11 11 10 9 8 9 11 11 0 2 2 4 4 2 6 7 9 9 10 10 9 11 14 16 17 17 17 17 18
Wind_Direction
188 189 185 185 181 187 182 184 186 187 191 193 197 202 200 198 194 197 198 195 197 204 195 199 207 213 221 228 223 223 227 225 228 226 219 227 241 278 270 273 285 286 285 284 286 284 285 285 280 278 274 270 268 268 267 263 259 261 260 258 256 258 260
187 186 185 185 180 186 182 181 183 186 187 190 193 191 197 192 186 196 194 193 199 200 206 207 206 212 217 221 224 205 214 218 221 229 237 219 236 244 271 289 295 299 291 282 282 279 280 278 275 274 273 270 267 264 263 261 261 261 263 263 260 255 252
184 185 185 186 183 186 181 180 184 186 188 188 188 186 193 194 190 192 187 191 195 196 200 204 200 206 208 203 207 195 200 202 193 210 241 247 212 227 268 275 272 272 278 285 279 280 277 276 276 276 277 278 280 279 275 268 261 260 260 259 259 259 257
184 187 185 186 186 182 182 183 184 187 188 190 188 186 190 190 198 182 189 190 190 191 195 193 193 202 201 198 200 200 205 211 237 231 219 189 234 234 246 250 249 261 271 283 299 302 297 293 284 279 276 273 273 273 273 274 274 270 263 258 255 256 257
183 188 185 185 188 182 184 184 186 188 190 190 186 193 190 186 196 177 188 189 193 196 192 188 188 196 207 196 214 213 229 225 201 206 182 179 200 220 242 262 280 287 291 287 282 280 280 279 278 276 275 272 269 266 265 264 263 262 263 263 261 259 258
181 186 186 186 189 187 187 184 188 186 190 191 185 190 195 188 185 193 185 181 187 190 182 181 184 187 197 204 231 239 216 200 198 186 191 200 214 236 272 287 292 293 286 287 295 289 287 281 281 282 283 282 280 276 272 268 264 263 261 259 257 260 260
177 184 182 187 192 189 187 185 189 185 189 187 187 186 197 190 192 198 174 181 184 188 179 184 186 188 198 202 211 232 222 209 191 204 207 219 225 239 261 276 283 283 291 295 283 286 283 281 278 277 275 276 276 275 272 272 272 273 273 270 266 260 264
175 182 188 192 196 190 188 185 188 182 184 177 184 177 180 185 193 191 174 182 182 183 182 189 189 195 197 202 211 213 215 230 224 213 221 226 233 242 267 279 287 290 286 282 282 278 279 280 282 278 276 273 272 272 272 271 269 266 266 264 262 263 262
178 185 191 194 196 190 187 180 187 174 179 177 183 180 180 182 180 181 176 179 181 186 190 197 196 196 201 207 210 213 217 221 225 225 226 232 238 252 264 280 277 274 272 271 275 277 277 279 281 283 281 277 274 273 272 270 269 268 266 266 265 263 263
174 174 183 192 192 182 168 167 171 155 165 172 176 172 173 166 171 179 179 184 187 196 196 198 200 203 207 211 216 220 223 225 225 225 230 235 242 253 268 273 266 265 261 260 263 270 276 281 283 283 279 276 273 270 268 267 265 265 263 263 263 264 263
152 158 161 175 156 150 156 164 168 164 169 171 168 165 165 164 173 179 182 189 195 202 202 204 207 209 212 217 224 228 230 231 228 230 232 240 250 258 263 262 259 256 255 255 261 270 274 275 278 278 275 274 269 266 264 264 264 263 263 262 263 264 266
157 158 166 180 169 168 173 169 161 159 164 166 168 169 167 169 173 180 190 197 200 205 203 209 213 215 219 224 229 234 239 239 237 237 238 242 248 259 264 258 252 249 251 255 258 261 265 268 269 277 280 278 273 270 266 264 262 263 263 263 264 264 264
158 162 173 183 182 176 166 164 166 161 161 167 171 170 173 174 178 189 198 204 203 211 216 215 221 220 226 229 234 240 244 247 246 246 248 250 253 257 255 252 249 250 254 255 260 261 265 265 269 273 276 273 270 267 267 266 264 262 261 261 262 262 262
135 152 158 165 171 171 172 165 160 161 162 165 168 170 176 180 182 192 202 210 212 214 220 225 225 228 230 232 237 240 246 251 255 255 254 253 253 253 253 253 254 256 258 258 258 262 265 271 273 274 272 269 269 268 267 265 263 261 260 260 260 260 260
171 168 163 165 165 171 168 163 160 162 166 170 170 172 174 174 177 193 206 223 235 236 240 238 237 238 241 244 249 254 259 264 264 258 255 251 249 250 251 253 255 255 257 258 264 269 268 268 270 270 270 267 266 267 264 264 262 260 258 259 259 259 261
166 161 158 152 153 160 161 159 159 164 167 169 176 176 180 188 203 217 235 244 245 245 245 241 241 248 253 256 258 259 259 258 255 254 251 249 251 253 254 255 257 259 261 263 265 267 268 269 271 271 268 268 267 265 265 263 261 259 255 254 261 264 265
154 149 137 130 142 148 141 142 151 161 168 171 178 181 177 223 233 234 240 250 256 254 250 250 263 264 266 265 264 265 262 258 255 253 253 255 256 258 260 261 262 264 266 268 268 269 272 274 272 270 269 267 267 267 266 265 262 257 249 243 243 254 264
133 135 140 135 133 136 146 159 159 162 164 163 187 216 232 236 254 278 258 245 245 341 345 283 260 259 260 262 262 258 256 255 257 255 256 258 261 264 266 266 266 269 271 272 274 276 278 276 272 272 272 270 269 269 268 268 267 261 253 246 244 244 261
141 142 125 135 139 149 153 155 157 157 180 187 79 69 65 40 208 127 42 24 27 348 249 251 260 268 266 263 261 261 262 264 265 267 267 269 270 271 272 273 274 275 278 278 280 281 277 275 275 273 272 271 271 270 270 271 268 256 247 246 244 240 244
106 114 120 129 139 144 148 152 156 112 77 79 87 87 91 72 56 48 43 31 226 258 265 276 273 268 270 270 268 271 273 272 272 272 273 276 276 277 278 278 278 280 280 281 280 278 276 275 274 273 271 271 271 272 272 271 271 262 248 240 238 239 238
115 110 112 130 138 143 126 108 91 98 96 85 79 75 83 85 64 48 209 262 292 272 273 271 277 275 278 279 277 276 277 277 280 282 282 281 280 280 280 280 282 283 283 282 281 280 278 277 277 275 274 273 272 272 272 272 269 260 250 241 235 237 236
125 125 120 106 111 97 102 95 88 81 81 85 84 91 76 67 19 328 317 300 289 290 285 288 287 288 288 287 287 287 289 287 286 284 284 284 283 283 283 284 284 285 285 283 281 278 278 277 275 275 275 274 274 274 273 273 269 259 249 241 235 233 242
115 111 101 102 95 97 83 84 85 92 109 97 94 84 60 23 355 328 315 310 312 310 305 300 297 295 295 293 292 292 292 291 291 290 287 286 286 284 284 285 285 284 283 282 281 281 279 278 277 278 277 277 275 274 275 276 270 260 250 243 239 237 250
104 102 98 91 91 87 90 91 109 100 51 87 104 70 46 2 340 323 317 320 317 312 308 302 298 299 296 295 296 295 295 293 291 289 287 287 286 286 285 285 282 281 281 281 282 280 280 280 279 277 275 275 275 274 275 274 269 258 248 240 236 234 252
109 102 94 93 97 98 95 82 47 44 89 48 43 24 12 348 334 326 324 317 313 308 302 299 299 300 301 299 298 296 293 290 288 286 288 288 287 287 287 286 285 285 283 280 279 280 279 278 278 278 278 276 274 275 273 273 272 265 253 244 239 236 248
109 100 96 94 87 89 95 104 124 79 40 33 22 359 352 339 330 326 315 311 308 302 299 300 302 302 300 296 294 293 292 290 288 289 288 288 288 288 286 287 285 284 284 283 283 283 284 283 283 282 281 280 278 275 272 272 271 271 264 248 240 233 243
91 98 102 98 92 94 89 60 31 6 6 20 360 349 344 338 327 317 314 308 303 299 302 304 302 299 295 294 293 292 290 291 291 291 291 289 289 289 288 287 287 288 287 287 286 285 285 284 283 282 280 278 277 276 275 274 275 274 265 258 246 236 226
107 94 89 87 78 52 39 18 14 352 350 355 346 345 338 329 319 313 310 305 300 302 304 302 299 297 296 294 293 293 292 291 291 291 291 291 291 291 290 289 290 289 287 287 287 286 284 283 281 279 279 279 277 277 277 276 271 273 270 259 251 245 236
108 103 94 79 73 57 21 11 352 351 350 340 343 338 329 321 312 309 306 301 304 306 304 305 302 300 297 295 294 294 293 293 293 294 294 295 295 295 294 293 290 286 286 285 284 282 281 280 280 280 281 282 281 281 279 275 268 256 261 260 249 245 244
104 98 91 72 51 37 21 1 351 341 337 331 331 326 319 317 309 307 305 303 309 309 307 303 300 300 299 297 296 296 295 295 296 297 297 296 298 297 294 291 289 287 285 283 283 282 281 281 282 283 284 285 284 283 278 275 273 275 267 266 261 255 251
93 88 75 56 47 38 14 357 340 326 322 324 322 322 318 312 308 305 303 306 309 307 304 303 302 302 300 300 300 299 297 298 297 297 297 297 296 295 292 291 290 288 286 284 282 282 284 285 286 287 287 285 282 281 285 288 288 286 286 283 271 255 253
104 102 103 87 70 27 358 341 325 321 319 319 321 319 316 311 307 305 306 311 310 305 305 306 304 302 302 300 299 299 300 299 298 296 296 296 295 292 289 288 289 286 287 285 283 282 283 286 286 284 282 283 288 294 295 296 298 300 302 305 303 297 277
99 81 57 51 49 9 352 339 328 324 323 319 322 319 313 310 308 307 310 305 304 304 305 305 304 302 301 302 303 302 300 300 299 300 299 296 291 289 287 286 284 285 284 284 287 287 286 286 285 286 291 285 288 294 300 298 298 298 299 301 307 308 315
99 89 71 54 31 6 337 331 327 323 323 319 318 317 312 312 310 311 311 309 307 308 309 307 304 303 303 304 305 304 302 298 297 296 295 295 297 294 293 289 288 285 283 283 284 285 286 289 291 289 286 297 306 304 298 297 296 299 305 311 315 305 300
81 74 50 25 2 348 339 331 326 322 320 317 317 315 315 313 310 311 310 309 313 319 314 307 304 303 303 303 302 301 300 298 300 300 297 297 292 288 284 287 285 282 283 285 281 283 289 292 292 296 312 310 299 299 299 296 297 300 318 303 296 292 291
84 60 45 16 344 345 336 335 329 323 320 317 319 318 314 314 313 313 313 315 315 316 310 308 306 304 302 302 301 301 301 305 304 301 298 294 292 293 293 278 264 262 271 278 283 284 331 83 280 305 308 301 297 302 298 298 297 302 301 293 290 287 278
74 46 28 4 351 350 341 333 326 323 321 321 319 312 313 316 315 316 316 315 314 312 309 309 307 306 305 303 301 306 309 305 300 296 291 291 289 287 286 296 290 251 242 247 260 303 352 282 280 285 276 283 298 298 283 282 285 287 286 286 284 280 276
88 39 17 7 356 347 335 332 332 327 324 321 318 317 319 318 319 320 316 319 319 317 312 310 308 305 304 303 304 308 307 302 298 301 299 300 303 300 299 303 304 303 314 83 168 185 190 235 269 273 273 276 278 293 302 296 294 293 292 289 285 280 278